Regional & State Weather Roundups


077 
ASUS41 KBOX 172310
RWRBOX
REGIONAL WEATHER ROUNDUP
NATIONAL WEATHER SERVICE TAUNTON MA
600 PM EST SAT FEB 17 2018
NOTE:  "FAIR" INDICATES FEW OR NO CLOUDS BELOW 12,000 FEET WITH NO 
SIGNIFICANT WEATHER AND/OR OBSTRUCTIONS TO VISIBILITY.
MAZALL-180000-
EASTERN MASSACHUSETTS
  
CITY           SKY/WX    TMP DP  RH WIND       PRES   REMARKS
BOSTON         CLOUDY    35  24  64 S21G29    30.30S WCI  24          
BEVERLY        FAIR      34  23  64 S12       30.29F WCI  25          
LAWRENCE       FAIR      33  18  53 SE6       30.30S WCI  28          
BEDFORD        FAIR      34  21  59 S12       30.28R WCI  25          
BLUE HILL        N/A     32  22  66 S17G33    30.26S WCI  21          
NORWOOD        MOCLDY    36  23  59 S14G22    30.31R WCI  27          
MARSHFIELD     MOCLDY    36  25  64 S7        30.32R WCI  30          
PLYMOUTH       CLOUDY    34  23  64 S7        30.32F WCI  28          
TAUNTON        CLOUDY    34  24  67 S6        30.31F WCI  29          
NEW BEDFORD    CLOUDY    34  27  75 S8        30.31F WCI  27          
$$
MAZALL-180000-
CAPE COD AND THE ISLANDS
  
CITY           SKY/WX    TMP DP  RH WIND       PRES   REMARKS
FALMOUTH       CLOUDY    32  25  74 CALM      30.32                   
HYANNIS        CLOUDY    36  25  64 S10G18    30.30F WCI  28          
CHATHAM        MOCLDY    36  25  64 S8G18     30.34F WCI  30          
NANTUCKET      FAIR      36  28  73 SE17      30.30F WCI  26          
MARTHAS VNYRD  CLOUDY    36  26  67 SE12      30.30F WCI  28          
$$
 
MAZALL-180000-
CENTRAL AND WESTERN MASSACHUSETTS
  
CITY           SKY/WX    TMP DP  RH WIND       PRES   REMARKS
WORCESTER      CLOUDY    29  14  53 S17       30.23R WCI  17          
FITCHBURG      FAIR      36  13  38 S8G22     30.26R WCI  30          
ORANGE         FAIR      34  11  38 S17G24    30.23R WCI  23          
SPRINGFIELD    CLOUDY    33  19  55 S10       30.24S WCI  25          
WESTFIELD      CLOUDY    33  19  56 S14       30.24S WCI  23          
NORTH ADAMS    FAIR      34   9  35 MISG      30.17S                  
PITTSFIELD     MOCLDY    31  13  47 S9        30.14F WCI  23          
$$
 
RIZALL-180000-
RHODE ISLAND
  
CITY           SKY/WX    TMP DP  RH WIND       PRES   REMARKS
PROVIDENCE     CLOUDY    34  27  75 SE8       30.30F WCI  27          
NEWPORT        CLOUDY    34  28  79 SE9       30.29F WCI  27          
BLOCK ISLAND   CLOUDY    36  29  75 SE8       30.29R WCI  30          
SMITHFIELD     FAIR      31  23  72 VRB6      30.28F WCI  25          
WESTERLY       CLOUDY    37  29  72 SE8       30.30R WCI  31          
$$
 
CTZALL-180000-
CONNECTICUT
  
CITY           SKY/WX    TMP DP  RH WIND       PRES   REMARKS
BRADLEY INTL   CLOUDY    33  20  58 S12       30.26S WCI  24          
HARTFORD       CLOUDY    34  21  59 S6        30.29R WCI  29          
BRIDGEPORT     FLURRIES  36  27  69 SE7       30.26F WCI  30          
DANBURY        LGT SNOW  32  24  72 SE6       30.23F WCI  26          
GROTON         CLOUDY    37  27  67 SE10      30.29R WCI  30          
NEW HAVEN      CLOUDY    36  25  64 CALM      30.27S                  
CHESTER        CLOUDY    34  21  60 CALM      30.27S                  
MERIDEN        CLOUDY    34  23  64 S6        30.28R WCI  29          
WILLIMANTIC    CLOUDY    33  19  56 S5        30.30R WCI  29          
OXFORD         LGT SNOW  31  25  78 S10       30.25R FOG     WCI  22  
$$
MEZ002-015-021-024-NHZ003-005-008-011-012-014-VTZ005-008-180000-
NORTHERN NEW ENGLAND
  
CITY           SKY/WX    TMP DP  RH WIND       PRES   REMARKS
PORTLAND ME    MOCLDY    31  21  66 S10G17    30.30F WCI  22          
BANGOR ME      CLOUDY    25  10  53 S10       30.31F WCI  15          
CONCORD NH     FAIR      31  15  52 SE7       30.25R WCI  24          
MANCHESTER NH  CLOUDY    32  12  43 SE15      30.25R WCI  22          
NASHUA NH      FAIR      31  17  56 SE7       30.27R WCI  24          
PORTSMOUTH NH  CLOUDY    31  15  51 S8        30.28F WCI  23          
JAFFREY NH     FAIR      33  12  41 S8        30.19S WCI  26          
KEENE NH       FAIR      32  13  45 VRB3      30.20F                  
BURLINGTON VT  CLOUDY    32  14  47 S10       30.11F WCI  24          
MT. WASHINGTON CLOUDY     9 -13  37 SW32G43     N/A  WCI -15          
$$
NYZ052-076-180000-
EASTERN NEW YORK
  
CITY           SKY/WX    TMP DP  RH WIND       PRES   REMARKS
ALBANY         CLOUDY    35  15  44 S16G26    30.16F WCI  25          
NEW YORK CITY  FLURRIES  34  29  82 E7        30.24F WCI  28          
$$
 
ANZALL-180000-
MARINE OBSERVATIONS
  
STATION/POSITION TIME  TEMP    WIND        PRES    VSBY  WAVE
                       AIR SEA DIR/SP/G                  HT/PER
                 (UTC) (F)     (DEG/KT/KT) (MB)    (MI)  (FT/S)
BOSTON BUOY      2250   35 40  150/ 17/ 19 1025.7F         2/ 3
BUZZARDS BAY     2200   34     150/ 20/ 22 1025.8F
NANTUCKET SOUND  2250   35 39  150/ 16/ 19 1026.2F         2/ 3
MASS BAY-STELLWA 2204   33 38              1025.5F         2/ 5
ISLE OF SHOALS   2300   33     170/ 21/ 24 1025.8F
S OF BLOCK IS    2243      38                N/A           3/10
$$
......................KEY.........................
  SKY/WX - SKY CONDITION/PRESENT WEATHER
  TMP    - TEMPERATURE IN FAHRENHEIT
  DWPT   - DEWPOINT IN FAHRENHEIT
  RH     - RELATIVE HUMIDITY IN PERCENT
  WIND   - DIRECTION AND SPEED IN MPH
  PRES   - MEAN SEA LEVEL PRESSURE IN INCHES OF HG
  WCI    - WIND CHILL INDEX
  VSB    - VISIBILITY IN MILES
  HX     - HEAT INDEX
  TC     - TEMPERATURE IN CELSIUS
  VRB    - VARIABLE WIND DIRECTION
  N/A    - NOT AVAILABLE